Powrót do katalogu

STARLINK-2646

AktywnyŁącznośćVLEO
NORAD 48642·PAYLOAD·🇺🇸 United States

Wystrzelony May 26, 2021 z Cape Canaveral Space Force Station

Loading…

Następne Przeloty (najbliższe 24 godziny)

TLE

ŚwieżeSource: CelesTrak SupGP

Epoka: Sep 14, 2026, 20:15 UTC

1 48642C 21044E   26257.84423611 -.00030207  00000+0 -97134-3 0  2573
2 48642  53.1591 313.6557 0000831  73.0494 126.6651 15.31719016    11

Śledź STARLINK-2646 w czasie rzeczywistym z AllMySat

Download on the App Store